Wind_Speed
7 9 13 18 22 24 26 27 28 29 32 33 35 38 40 40 38 38 39 41 42 44 46 47 47 47 46 44 41 40 41 43 42 42 42 41 41 41 41 42 42 43 43 42 41 39 37 34 32 30 28 26 24 22 21 19 18 16 14 14 14 14
9 11 15 18 21 23 23 24 28 32 33 33 34 37 37 37 39 41 42 43 44 44 44 45 46 47 45 43 41 41 42 43 42 42 42 41 41 42 42 42 42 43 43 42 40 39 38 36 34 32 30 28 26 24 23 21 20 17 16 15 15 15
9 13 16 17 17 19 22 26 30 32 33 35 38 37 36 38 40 42 43 45 46 45 45 45 45 45 43 41 41 42 42 42 41 41 41 41 41 42 42 43 43 43 43 42 41 40 39 38 36 34 32 30 28 26 24 22 21 18 17 16 16 16
8 9 11 13 15 19 24 27 29 30 33 37 39 37 38 40 42 44 46 46 45 47 47 46 43 42 41 41 41 42 42 41 41 41 41 41 41 42 43 43 43 43 43 43 43 41 40 39 37 35 33 31 30 27 25 23 21 20 18 18 18 17
6 5 7 11 16 19 22 24 28 31 35 37 36 37 41 44 45 47 46 44 44 46 46 44 42 41 41 42 42 43 43 42 41 41 41 41 41 41 42 43 43 43 43 44 44 42 41 40 38 36 34 32 30 28 26 24 22 20 19 19 19 18
5 5 6 9 14 18 21 24 28 31 33 34 35 39 44 46 45 44 42 42 44 44 43 42 41 40 41 43 45 45 44 43 42 42 42 42 41 41 42 42 43 43 44 44 44 43 42 40 38 36 34 32 29 27 26 24 22 21 19 19 19 19
5 6 6 8 12 17 20 24 27 30 33 35 37 41 45 45 43 41 40 42 42 40 40 40 40 41 43 45 45 45 45 43 42 42 42 42 41 41 41 41 42 43 44 45 45 44 43 41 39 37 34 31 29 26 25 23 22 21 20 20 19 19
6 7 7 7 11 15 19 23 27 30 33 36 39 42 43 42 40 39 39 39 39 38 39 40 40 43 45 46 46 45 44 43 42 42 42 42 41 41 42 42 43 44 44 45 45 44 43 41 39 37 35 32 28 26 24 23 22 21 20 20 19 19
8 8 8 9 12 16 20 23 26 28 30 34 38 41 41 39 37 38 39 39 39 39 40 41 44 46 47 46 45 44 43 42 42 42 41 41 41 42 42 43 44 44 45 45 44 44 43 41 39 37 34 31 29 27 26 24 23 22 20 20 19 19
9 9 9 10 13 18 22 24 28 31 32 35 37 37 38 37 35 37 39 39 39 40 42 45 47 47 46 44 42 41 41 41 41 41 41 41 42 43 44 44 44 44 44 44 44 44 42 41 39 37 34 32 29 28 27 25 24 23 21 20 20 19
11 11 11 12 13 17 21 24 28 30 32 36 37 36 37 36 35 37 38 37 38 42 44 44 43 42 41 40 39 39 40 41 41 40 41 42 42 43 43 44 45 44 44 43 43 42 41 40 39 37 35 33 31 29 27 25 24 23 22 22 20 19
12 12 13 13 12 15 17 21 26 27 31 35 35 35 37 36 36 37 36 37 42 44 43 39 38 37 38 38 39 40 40 40 40 40 41 41 42 42 43 43 43 44 44 43 42 41 40 40 39 37 35 32 30 29 28 27 26 24 23 22 20 19
12 13 14 14 14 16 17 20 25 28 30 31 32 35 36 34 35 36 36 40 43 41 37 36 36 37 38 39 39 39 39 39 39 40 40 40 41 41 42 43 43 43 43 43 42 41 41 40 39 36 33 31 30 30 29 28 27 26 24 22 20 20
15 15 15 15 17 18 19 23 25 25 26 29 33 34 32 30 32 34 37 39 38 34 33 35 36 36 37 37 38 38 38 38 38 39 39 40 40 41 41 42 42 42 41 41 40 41 41 40 38 35 34 32 31 30 29 29 28 26 24 22 21 19
16 16 16 17 19 23 28 30 26 25 28 31 32 28 26 29 32 33 34 34 32 32 33 34 35 35 36 37 37 37 37 38 39 39 40 40 40 40 40 40 40 40 40 40 41 41 41 40 38 35 32 31 30 30 29 28 27 25 23 21 19 16
16 18 22 25 27 31 35 34 29 29 32 29 24 23 26 30 31 31 31 30 29 31 32 33 34 35 35 35 36 36 37 39 39 39 39 39 39 39 39 40 40 40 40 41 41 40 40 39 37 33 29 28 28 28 28 26 24 22 20 17 15 14
16 18 23 29 33 34 33 32 29 29 29 25 21 23 26 28 28 28 28 27 28 30 31 33 34 33 33 34 35 36 37 38 38 37 38 38 39 40 40 40 41 40 40 40 40 39 38 39 36 30 27 27 26 25 25 23 21 19 16 15 14 14
18 19 23 29 34 33 31 31 29 25 24 21 20 21 23 24 24 24 25 26 27 30 32 33 33 33 33 35 35 36 37 37 37 37 37 37 37 37 38 38 39 40 39 39 39 38 37 37 34 29 26 27 26 24 23 22 21 19 18 17 17 17
25 26 28 31 33 32 32 33 28 18 13 11 12 14 16 18 20 21 23 25 27 30 32 33 34 34 34 35 36 36 36 36 36 36 36 36 35 35 36 36 36 37 38 38 38 37 36 36 33 27 26 27 26 26 25 23 23 22 21 20 20 20
29 30 31 30 32 33 32 30 24 14 6 4 6 10 13 15 18 20 22 24 26 28 30 32 33 34 34 36 37 36 36 35 35 35 36 37 36 35 35 35 34 35 37 37 38 36 36 35 31 27 27 27 26 28 28 26 25 24 23 22 21 19
30 32 31 29 31 35 33 25 18 11 6 4 6 10 13 15 17 18 20 21 23 25 27 29 30 31 32 33 33 33 33 33 33 34 35 35 35 34 34 34 34 34 35 36 36 35 34 35 31 27 27 27 26 28 30 28 26 25 24 22 20 18
27 28 28 27 30 37 35 26 17 10 6 4 7 10 12 12 13 15 17 19 21 24 26 28 29 30 31 31 30 29 31 32 32 33 34 34 34 34 34 34 35 34 34 34 34 33 34 36 34 30 29 28 27 27 30 29 28 26 25 22 20 19
27 26 27 28 32 37 37 29 22 17 12 7 8 11 10 9 10 12 14 17 19 22 25 27 29 30 30 30 30 30 31 32 33 35 36 34 33 33 33 34 34 33 33 33 34 33 34 36 37 33 29 28 27 27 28 30 29 27 25 22 19 18
28 29 30 32 34 36 37 29 23 22 18 12 13 15 11 8 8 10 12 15 18 21 24 26 27 28 29 29 31 31 31 32 33 35 35 33 32 32 32 32 32 32 31 31 32 33 34 36 37 34 29 27 28 27 27 29 29 26 23 22 20 18
25 28 31 33 34 37 37 29 21 21 18 15 17 16 9 7 7 8 11 14 17 20 23 24 25 27 28 29 31 31 31 30 31 33 34 33 32 31 30 30 31 31 30 31 31 32 33 34 35 35 30 27 27 26 25 26 26 24 22 22 21 19
24 28 32 33 33 34 35 29 22 19 17 18 20 17 10 8 7 7 10 13 16 19 22 24 25 27 28 29 31 30 29 30 31 32 32 32 32 30 28 28 30 29 30 33 32 31 32 32 32 34 32 28 27 27 26 25 24 23 22 21 20 17
26 28 30 32 32 31 32 30 23 19 19 21 21 17 13 10 8 9 10 13 15 18 20 22 24 27 29 31 33 32 31 31 31 30 30 31 31 30 28 28 28 28 29 30 29 29 31 32 31 32 31 28 26 26 26 24 24 23 22 21 18 15
27 26 26 31 33 31 30 30 24 21 23 25 21 17 15 12 10 11 12 14 16 18 21 22 23 26 28 30 33 33 33 34 33 31 30 30 30 30 28 28 28 27 27 27 27 28 30 30 30 31 30 28 26 26 25 24 23 21 20 18 16 14
22 23 25 29 33 32 30 31 28 26 28 29 24 19 16 13 13 13 14 16 17 19 22 24 24 25 27 29 31 31 31 33 33 31 30 30 29 28 27 27 27 26 26 25 25 27 28 29 30 30 31 31 29 28 27 26 24 22 19 18 17 16
20 22 24 28 32 33 32 33 32 29 28 29 27 21 17 16 16 17 18 19 19 21 24 25 26 28 29 30 31 31 32 34 35 34 35 37 37 34 31 30 30 30 31 30 29 28 27 27 30 33 35 36 35 33 31 29 27 25 23 21 19 17
22 23 25 29 32 34 32 32 31 29 27 27 27 22 19 19 19 19 20 20 21 23 24 25 26 28 30 30 29 30 31 33 35 35 35 38 41 41 39 37 36 36 36 35 34 33 29 27 32 37 39 39 38 36 35 32 30 27 24 21 19 16
23 24 26 30 32 31 31 32 33 32 29 28 26 23 22 22 20 19 21 22 23 24 25 25 25 26 28 28 27 26 26 27 30 30 28 30 34 36 36 35 37 38 37 36 37 38 36 37 40 40 37 34 32 32 31 30 28 25 22 20 18 16
26 27 29 31 31 30 30 34 38 37 33 30 28 26 25 25 22 19 20 22 24 26 27 26 25 26 26 26 25 24 23 22 24 24 23 23 26 28 27 27 30 35 37 38 38 35 31 32 36 36 33 32 30 29 27 26 25 23 22 22 21 18
25 26 29 32 33 33 33 37 42 42 35 29 28 28 28 28 25 22 22 23 25 27 28 27 26 25 25 24 24 24 23 20 19 19 19 18 20 23 23 22 24 28 31 33 36 33 28 28 32 34 33 32 31 29 28 26 24 24 24 23 20 18
27 28 32 33 35 36 37 39 44 43 36 30 29 28 29 30 30 27 26 25 25 26 27 26 25 25 25 25 24 24 24 22 19 17 17 17 19 21 22 22 22 24 25 26 29 31 31 33 35 34 33 32 31 30 28 26 25 25 24 22 20 19
31 34 35 34 34 35 35 37 43 41 33 30 30 29 29 31 32 31 30 28 27 26 26 27 27 26 26 26 26 25 25 24 23 21 19 19 18 19 21 22 23 24 25 25 26 28 31 34 35 34 32 32 31 30 29 28 26 23 20 19 20 21
35 38 37 34 33 33 33 37 43 39 33 32 32 30 31 32 31 30 30 30 29 28 27 27 28 27 26 26 26 25 24 24 24 23 23 21 19 18 19 22 25 26 27 28 28 29 31 32 32 32 31 31 31 31 31 30 28 24 20 19 20 20
36 38 37 34 34 34 35 40 42 36 31 32 31 29 30 30 28 27 27 27 28 28 27 26 27 27 26 26 26 25 25 24 24 24 24 23 22 21 21 22 25 28 29 28 29 29 30 31 31 30 30 30 31 32 33 32 28 24 23 22 20 19
Wind_Direction
228 215 210 210 209 209 208 206 205 207 209 209 207 208 209 210 210 211 213 213 214 216 217 218 218 219 220 220 220 219 219 220 219 218 219 218 216 215 214 213 211 209 208 207 205 202 200 201 201 200 200 201 202 203 203 203 204 205 205 207 211 215
230 222 217 214 212 213 211 207 207 209 211 212 213 214 213 212 212 213 214 215 217 218 219 219 220 220 221 220 219 219 220 221 220 219 219 217 216 215 214 214 213 210 208 206 205 203 200 200 200 200 200 201 202 203 202 201 202 204 205 206 210 214
236 229 224 219 214 214 212 210 210 210 211 213 215 216 214 214 215 214 215 217 217 219 220 221 221 220 220 220 219 220 221 221 221 220 218 217 217 215 214 214 213 211 208 206 205 204 202 201 200 200 201 201 201 202 202 201 201 202 202 205 208 212
238 234 228 218 212 214 213 212 211 210 212 216 217 216 216 216 216 216 217 217 217 218 219 220 221 219 219 219 220 221 221 221 221 220 218 217 217 215 214 213 212 210 208 206 205 204 204 203 202 201 201 201 200 199 200 200 200 200 200 203 206 210
230 222 221 219 219 219 215 213 212 213 216 217 217 218 220 220 220 219 218 217 218 219 219 219 219 218 217 218 219 220 221 221 220 219 218 217 216 214 213 212 211 208 206 205 204 204 204 203 203 202 202 201 201 199 199 199 200 200 200 202 206 210
233 209 211 219 225 225 221 217 216 217 220 219 218 221 223 223 222 221 218 217 219 219 218 218 217 216 216 217 218 219 219 219 219 218 218 216 215 213 212 211 210 207 205 203 203 203 203 203 203 203 203 203 202 201 200 198 199 200 202 205 208 211
240 230 224 217 220 224 226 225 222 220 221 221 221 224 226 225 222 221 219 218 219 218 217 217 215 215 216 217 218 218 218 217 216 216 215 213 212 211 209 208 207 206 204 203 203 203 203 203 203 203 203 202 202 201 200 199 199 201 203 207 210 213
248 243 241 231 228 229 230 231 229 226 224 224 224 226 228 226 222 220 219 218 218 217 217 216 214 215 217 217 217 217 216 215 213 213 212 210 209 208 206 205 205 205 204 204 204 203 203 204 203 203 202 200 199 199 199 199 200 202 204 207 211 216
255 245 243 243 245 244 240 236 235 233 232 231 230 229 228 226 221 219 218 217 217 217 216 215 215 217 218 217 216 215 213 212 211 210 209 208 207 205 204 203 203 204 205 204 204 204 204 203 201 201 200 198 198 198 198 199 200 202 204 208 213 217
253 247 243 244 245 245 242 238 236 236 237 238 238 233 228 224 219 217 217 216 216 217 217 217 218 218 217 216 215 213 210 209 208 207 206 205 204 203 203 202 202 203 203 204 205 205 204 202 199 199 198 198 198 198 198 198 199 201 204 207 215 219
251 249 245 243 239 241 241 238 237 236 236 240 240 235 230 224 217 216 216 215 217 219 219 219 218 217 216 214 212 210 208 207 205 204 204 203 202 203 203 202 202 201 201 202 203 203 201 200 200 200 199 198 197 197 197 198 199 202 204 207 212 218
258 258 256 252 245 242 241 238 238 238 237 240 239 235 231 223 215 215 214 214 218 220 219 217 215 213 212 210 209 208 205 203 202 201 201 201 201 200 200 200 200 200 200 200 200 199 199 199 200 201 200 199 199 197 196 197 199 201 204 206 209 214
287 274 269 264 259 252 243 241 244 243 241 240 239 236 232 222 215 215 214 216 219 219 215 212 210 208 208 207 206 204 202 200 199 198 198 198 197 198 198 197 197 198 199 199 198 198 198 199 201 200 199 199 200 200 197 196 198 199 202 205 206 209
327 308 290 276 271 268 262 257 252 246 242 242 241 238 231 221 217 216 216 218 219 215 210 207 205 203 203 203 202 201 199 198 197 196 196 195 195 195 195 195 195 196 197 197 197 198 198 200 201 199 198 198 199 200 199 197 196 197 199 202 205 209
344 332 318 302 290 284 280 275 265 252 248 247 243 237 226 219 218 218 218 219 215 210 207 204 200 200 200 199 198 197 195 195 195 195 195 194 193 193 193 193 194 194 195 196 197 198 200 201 199 196 195 195 196 198 198 197 197 197 198 200 204 208
342 338 335 329 316 303 294 290 283 270 262 255 242 230 221 217 216 216 218 216 212 208 204 200 198 197 197 196 194 193 193 193 194 194 193 192 191 191 192 192 193 194 195 196 197 198 200 200 197 193 190 189 191 196 196 195 194 195 197 199 203 210
337 336 336 335 330 322 310 302 297 286 275 262 242 227 219 213 212 214 214 212 208 205 201 198 196 194 193 192 191 191 191 192 192 191 191 191 191 192 193 192 193 194 194 196 196 196 199 199 194 189 186 184 184 189 191 191 190 193 197 201 206 212
329 329 330 332 334 333 326 316 309 295 278 263 242 226 215 209 209 210 209 206 204 202 199 196 193 191 190 189 188 189 190 190 190 190 189 190 191 192 193 193 193 193 193 194 195 195 197 197 191 185 185 183 179 181 187 190 192 193 195 199 204 209
327 328 329 331 333 335 334 331 325 307 278 259 238 223 212 204 206 207 205 204 203 201 199 196 192 189 188 187 187 189 190 189 189 189 187 187 188 190 191 192 192 192 192 192 193 195 196 193 187 183 184 182 178 181 186 189 189 190 193 199 205 210
328 328 329 331 331 333 337 337 334 330 318 274 229 214 205 202 207 208 205 205 204 201 198 196 193 190 188 187 188 189 188 188 187 187 187 187 188 189 190 190 190 191 193 193 193 195 195 190 185 183 184 181 180 183 187 188 187 189 194 199 204 214
325 327 330 331 330 331 334 334 331 336 334 285 231 209 207 211 212 208 206 206 204 201 198 196 194 192 189 189 190 188 186 185 185 186 187 187 188 188 188 188 188 189 191 193 193 194 194 189 183 183 185 181 181 187 191 189 187 188 193 197 202 213
324 327 329 328 327 328 329 327 322 319 308 267 235 225 226 227 220 212 210 207 203 200 198 196 195 194 192 190 189 187 185 184 184 183 185 186 187 186 186 187 188 188 189 191 192 193 194 190 183 183 186 182 182 190 193 191 189 189 190 193 199 205
322 324 322 322 326 327 327 324 317 312 313 303 274 269 266 252 231 219 212 206 201 199 197 196 196 195 194 191 187 184 184 185 184 183 183 184 184 183 183 184 186 186 187 189 190 192 194 191 187 185 185 183 184 190 195 194 193 191 189 190 195 201
321 323 321 323 326 326 325 323 313 311 317 312 302 303 300 276 245 223 208 201 198 197 195 196 197 196 193 191 186 183 182 183 184 184 182 182 182 181 181 182 182 182 183 184 188 191 192 192 191 188 185 183 184 188 194 197 195 192 190 189 194 199
320 321 320 321 323 323 323 320 309 309 313 306 307 316 311 278 256 225 208 200 195 195 195 195 196 195 192 189 186 183 181 181 182 182 181 181 180 178 179 180 179 179 179 180 184 190 191 191 192 190 185 183 185 186 191 195 192 189 189 189 191 193
319 319 317 317 319 320 321 318 308 304 305 301 305 309 300 279 259 223 212 203 195 195 195 194 194 194 191 188 185 182 180 179 180 180 181 181 179 178 178 180 180 179 179 180 182 186 189 189 189 189 187 183 184 186 188 188 185 185 189 189 188 189
317 316 314 315 318 320 320 318 310 300 299 303 305 301 292 280 255 228 217 207 200 198 195 193 193 193 191 189 186 183 181 180 179 180 182 182 182 181 181 181 183 184 182 181 180 182 186 186 185 186 185 182 183 186 186 185 182 181 184 186 187 191
318 317 315 315 316 318 318 317 310 299 299 304 304 295 286 272 248 234 222 209 204 200 195 192 192 192 192 190 188 188 186 183 182 183 184 185 186 186 185 184 186 187 185 184 183 180 181 183 181 180 180 179 180 184 185 184 181 178 178 180 182 181
317 316 314 311 311 314 315 313 308 303 303 304 300 289 277 261 241 232 223 213 206 200 196 194 192 191 192 191 190 190 189 188 188 186 186 188 189 190 190 188 187 187 186 185 183 178 177 179 179 177 177 177 178 181 182 181 178 175 172 171 170 172
312 311 310 306 307 311 311 307 305 305 305 304 297 284 268 252 238 229 223 216 209 203 200 198 195 193 193 194 194 193 192 192 192 192 194 195 192 190 191 190 190 191 189 183 178 175 174 178 182 181 179 178 178 179 179 176 173 172 172 171 172 175
305 306 304 300 302 306 304 302 303 307 309 307 299 283 262 251 240 227 220 214 208 205 203 201 200 197 196 196 199 200 200 198 198 200 204 204 200 197 195 194 194 194 190 184 180 176 174 180 187 186 183 180 178 177 175 172 172 173 173 174 177 177
304 303 298 295 297 300 300 300 302 303 306 308 302 285 265 253 240 227 218 211 206 205 202 200 201 200 198 198 201 203 206 208 207 208 213 214 211 208 204 201 199 196 190 186 185 183 184 188 189 186 181 178 176 175 172 170 170 170 167 167 172 174
304 301 295 294 296 297 297 298 297 295 296 300 298 287 269 254 240 229 220 213 209 207 203 200 201 200 199 201 201 200 203 207 211 215 220 220 217 214 211 209 205 198 192 189 187 187 189 189 183 176 172 172 172 171 168 165 165 164 161 163 168 170
299 295 293 294 297 297 295 294 291 289 291 293 292 285 270 253 241 234 228 220 214 210 205 201 200 198 196 198 199 199 199 198 201 209 216 218 213 209 208 207 202 196 193 191 186 183 181 176 169 166 167 169 170 168 164 162 162 159 158 165 171 169
294 292 290 292 294 294 293 290 287 287 288 288 285 280 269 255 244 239 236 228 217 209 204 201 199 196 195 195 195 195 195 193 192 195 197 199 199 199 201 202 197 190 186 184 182 179 173 167 164 165 168 170 168 163 159 158 157 154 157 167 172 167
293 290 289 290 290 289 289 286 283 286 290 288 282 278 270 260 250 244 241 233 221 210 204 202 199 197 196 197 195 194 194 194 193 188 181 180 182 186 190 191 189 184 177 173 172 170 165 163 163 165 168 168 163 158 154 151 147 146 155 169 172 167
290 288 288 290 288 286 284 281 281 285 290 287 282 277 271 263 255 249 246 238 225 215 207 204 201 198 196 195 195 194 194 193 191 187 183 180 178 177 176 174 175 176 172 167 165 163 162 163 163 164 165 163 157 154 151 146 141 141 150 161 165 165
284 284 287 287 284 281 279 278 280 287 289 286 284 280 272 264 257 252 248 239 227 217 210 205 201 197 195 194 192 192 192 191 189 187 185 183 179 172 165 160 160 163 163 161 161 161 161 161 160 160 160 158 154 154 155 151 146 146 150 154 158 162
Height
675 675 675 676 677 679 680 683 686 688 690 692 693 693 693 696 700 702 704 705 707 708 709 711 713 716 719 723 726 729 730 732 734 737 739 742 745 748 751 754 756 758 760 762 765 766 768 770 773 775 777 779 780 781 782 784 786 787 787 789 791 793
673 673 673 673 674 677 679 682 683 684 687 689 691 692 693 695 696 697 699 700 702 704 706 708 710 712 715 718 722 725 725 728 730 733 736 739 742 744 747 750 753 756 758 761 764 765 766 767 769 771 773 775 776 777 778 780 782 783 785 787 789 791
671 671 671 672 674 677 678 678 678 680 683 684 685 687 689 690 690 691 693 694 696 699 701 703 705 708 711 715 718 720 722 725 727 729 732 735 737 740 743 746 749 752 755 758 761 763 764 765 766 768 770 772 773 774 775 776 778 780 782 784 786 788
669 670 671 673 674 674 674 675 676 677 678 678 680 683 683 684 684 685 685 687 690 691 693 697 700 704 708 710 713 715 718 720 723 726 729 731 733 736 739 742 745 748 751 754 758 760 762 763 764 765 767 768 770 771 772 773 775 777 779 781 784 786
668 668 670 672 672 672 672 673 673 672 672 673 676 678 677 677 677 678 680 683 684 685 688 692 695 699 702 704 707 709 712 715 718 721 724 727 730 732 735 738 741 744 747 751 754 757 759 761 762 763 765 766 767 768 769 771 772 774 776 778 780 782
667 666 666 668 669 670 670 669 668 668 668 670 671 670 669 670 672 673 676 678 679 681 684 687 690 693 695 697 700 702 706 710 713 716 719 723 726 729 732 736 738 741 743 746 750 753 755 757 759 761 763 764 765 766 767 769 770 772 773 775 777 779
665 664 664 664 664 664 665 665 664 663 663 664 664 663 662 664 666 669 672 673 675 678 680 682 685 687 689 690 693 696 700 704 708 711 714 717 721 725 728 732 735 737 739 742 745 748 751 753 756 758 760 761 763 764 765 766 768 769 771 772 774 776
661 660 660 661 659 658 659 660 659 658 657 657 656 656 656 659 662 665 667 669 671 673 675 677 680 681 682 684 687 690 694 698 702 705 709 712 716 720 724 727 730 733 735 738 741 744 747 750 752 754 756 758 759 761 762 764 765 767 768 770 772 774
655 654 655 657 655 655 655 655 655 655 654 652 650 650 651 654 657 659 661 664 666 667 668 670 672 673 675 678 681 685 689 693 696 700 703 707 711 715 718 722 725 728 732 734 737 740 743 746 748 750 753 755 756 757 759 761 763 764 766 768 770 772
652 651 652 652 651 651 651 650 649 648 648 647 646 646 647 648 651 653 655 657 659 660 661 662 664 666 670 674 678 682 684 687 691 694 699 703 706 710 713 716 720 724 728 731 734 737 739 742 744 746 749 751 753 754 756 758 760 762 764 766 767 770
650 649 649 648 648 647 645 644 642 640 641 639 639 641 641 643 645 647 649 653 654 653 654 657 660 664 668 672 675 677 680 682 686 690 694 697 701 705 708 712 716 719 724 727 730 733 736 738 741 742 745 747 748 751 753 755 758 759 761 763 765 767
649 648 646 644 643 641 638 637 635 634 633 632 633 634 635 636 638 640 644 646 646 646 650 654 658 661 665 668 670 673 676 678 682 685 689 693 697 701 705 708 712 715 719 723 726 729 732 734 737 739 741 743 745 747 749 752 754 756 758 760 763 765
652 649 646 643 639 636 633 631 628 628 627 626 626 627 628 631 633 634 637 637 637 641 646 649 653 656 659 662 666 669 673 676 679 682 686 690 693 697 701 704 708 711 715 719 722 725 728 731 733 736 738 740 742 743 746 748 750 752 754 756 759 761
658 654 649 644 639 634 630 626 624 623 622 621 620 620 624 627 628 629 630 631 634 639 642 644 647 650 654 658 662 666 670 673 677 681 684 687 690 693 697 700 704 708 711 715 719 722 725 727 730 733 734 736 739 741 743 745 747 749 751 753 756 758
663 659 654 648 641 635 629 624 622 619 616 615 615 617 621 623 624 625 626 627 632 635 637 640 643 646 649 653 657 662 666 670 674 677 680 683 687 691 694 697 701 704 708 711 715 718 721 724 727 730 732 734 736 739 741 743 745 747 749 752 754 757
664 660 655 650 644 637 629 624 621 617 613 612 612 613 616 617 619 621 622 626 629 632 635 637 640 643 646 650 655 659 663 666 669 673 677 680 684 688 691 694 697 701 704 707 711 715 718 721 725 728 730 733 735 737 740 742 744 746 749 751 754 756
665 660 655 650 644 638 630 624 620 617 614 612 611 610 611 613 616 618 620 623 626 629 632 634 637 640 644 648 652 656 659 662 666 670 673 677 680 684 687 690 693 696 700 704 708 712 715 719 723 726 729 731 734 736 738 740 742 745 747 750 753 756
667 662 657 651 645 638 631 624 619 615 612 611 611 610 610 612 614 616 618 621 623 626 629 631 634 637 640 645 649 652 656 659 662 666 670 674 678 682 685 688 691 693 697 701 705 709 712 716 720 724 726 729 732 733 735 737 739 742 744 747 750 753
666 662 657 652 646 639 632 626 621 615 611 611 612 612 612 612 613 615 616 618 620 623 626 629 632 634 637 641 645 648 651 655 659 663 667 671 676 680 683 686 689 691 695 698 702 705 709 714 718 721 724 726 729 730 731 733 735 738 741 744 747 749
665 662 658 653 647 641 635 630 624 619 615 615 615 616 615 614 613 614 615 617 620 622 625 628 630 632 635 637 640 644 648 652 657 660 664 669 673 677 680 683 686 690 692 695 699 703 707 711 715 719 721 723 725 726 727 729 731 734 737 740 743 745
664 660 657 653 648 642 638 634 629 624 621 620 620 619 617 614 613 614 615 617 620 623 626 629 631 633 635 638 640 644 647 651 655 659 663 668 671 675 679 681 684 687 690 693 696 700 704 708 712 715 717 720 722 723 724 726 728 730 733 736 739 741
663 659 655 652 649 644 640 637 633 628 624 622 622 619 616 615 615 616 616 617 620 623 625 628 632 634 636 639 642 645 648 651 654 658 662 666 669 672 676 679 682 684 687 690 693 697 701 704 707 711 713 716 718 719 720 723 724 726 728 731 735 737
661 659 655 652 650 645 641 638 635 630 625 622 620 618 617 617 617 617 617 618 620 622 625 627 630 633 635 638 640 643 647 650 652 656 660 664 667 670 673 676 680 682 684 687 690 694 697 700 703 706 708 711 713 715 717 719 721 723 725 728 731 733
659 656 653 650 649 645 641 638 634 631 627 623 621 620 620 620 619 618 618 618 620 622 625 628 631 633 635 637 639 641 645 648 651 654 658 662 665 669 672 674 677 680 682 685 687 690 694 697 700 702 704 707 709 711 713 716 718 721 723 726 728 730
658 654 651 649 648 645 641 638 634 631 629 626 624 624 623 622 622 621 619 619 620 622 624 628 631 633 636 637 639 641 644 647 651 654 657 660 663 667 671 673 675 677 679 682 684 687 690 693 696 698 700 703 706 709 711 713 715 718 721 723 725 726
659 655 651 649 648 645 642 639 635 632 629 628 626 626 625 623 622 622 621 620 621 622 624 627 629 631 634 636 639 642 644 647 650 653 655 658 661 665 668 671 673 674 675 677 679 682 686 689 692 694 697 699 702 706 708 710 712 715 717 720 722 723
660 656 651 648 647 645 642 639 637 633 630 628 627 626 625 623 622 622 621 621 622 623 625 627 629 630 632 634 636 639 642 645 649 651 654 656 658 661 664 667 670 671 672 674 675 678 681 685 688 690 693 696 700 703 706 708 710 712 714 716 718 720
661 657 652 648 646 645 643 639 637 634 631 629 629 627 625 623 622 622 621 621 622 623 625 627 629 631 632 633 634 636 639 642 645 649 651 654 655 657 659 662 665 667 669 671 673 675 678 682 684 686 689 692 696 700 704 706 708 710 712 713 715 718
662 658 653 648 644 643 642 638 635 633 630 629 628 626 624 622 621 621 620 620 621 622 623 625 627 629 632 633 634 635 637 639 643 646 649 651 653 655 657 659 661 663 665 667 670 673 676 678 681 683 684 687 691 696 699 702 704 707 709 710 712 715
662 658 655 649 643 642 640 636 632 630 629 627 625 623 622 620 618 618 617 617 618 619 620 621 623 625 628 630 632 632 632 634 637 639 640 641 642 646 649 652 654 655 656 659 663 667 672 675 676 677 678 680 684 689 692 695 698 701 703 705 708 712
660 657 654 648 644 642 639 633 630 628 626 625 623 621 620 618 616 615 614 613 614 615 617 618 620 621 623 626 628 629 629 630 632 634 635 636 636 638 640 642 645 647 650 653 656 659 664 667 669 670 673 675 680 683 685 688 692 695 698 702 705 708
658 656 652 646 644 641 637 631 628 625 624 624 622 620 618 616 614 613 611 610 610 611 612 614 616 618 620 621 623 626 628 630 631 633 635 637 638 639 640 640 642 644 647 651 654 656 658 659 662 668 673 677 681 683 684 686 689 692 695 699 702 706
656 654 648 643 640 638 634 630 625 622 622 622 620 618 616 614 612 610 607 606 605 605 607 609 611 613 615 617 619 622 624 627 630 632 634 635 637 640 642 643 643 644 646 649 653 657 660 662 664 668 673 677 680 682 684 685 687 690 693 696 698 703
654 651 646 641 637 634 631 626 620 618 619 619 617 614 611 609 608 605 603 602 601 601 602 604 605 607 610 612 615 618 620 623 627 629 632 634 635 638 641 644 645 646 647 648 650 653 658 662 666 669 673 676 679 680 681 683 685 687 690 693 696 700
650 647 643 640 636 631 627 620 612 611 615 615 612 609 607 604 602 600 598 597 597 597 597 598 599 602 604 606 609 612 615 618 621 624 628 631 634 637 639 642 645 646 648 649 650 652 654 659 664 668 673 676 677 677 679 681 684 686 688 690 693 697
645 641 638 637 634 628 622 614 606 606 611 611 606 603 600 597 595 593 592 591 591 592 591 592 593 595 597 600 604 606 609 612 615 619 623 626 629 632 635 639 642 645 647 649 652 654 656 658 662 667 672 674 675 676 677 680 683 685 687 689 692 695
641 634 632 631 627 622 616 607 600 603 608 605 600 597 593 589 588 587 586 586 586 586 586 586 587 589 591 595 598 602 605 609 612 616 619 620 623 626 629 633 638 642 644 647 650 654 657 660 663 667 671 672 673 674 676 678 681 683 686 688 691 694
635 629 626 625 620 615 609 599 596 600 603 599 595 591 586 582 582 582 581 581 581 581 582 582 583 584 587 589 593 598 602 606 610 613 615 617 620 622 626 630 634 639 643 647 650 653 657 660 663 667 669 671 672 673 674 675 678 681 684 688 690 693